Date String (YYYY-MM-DD hh:mm:ss) UTC,Instrument flags,absolute air pressure of the measurement (hPa),sample flow rate (lpm),inlet stack bypass flow (lpm),air temperature of the measurement (°C),ambient temperature measured by the external sensor (°C),aerosol sample conditioner tube jacket temperature (°C),OPC LED temperature (°C),internal box temperature (°C),relative humidity of the measurement (%),span deviation,mass concentration of particles derived from Lorenz-Mie calculation of OPC scattering (μg/m³),mass concentration of particles derived from Lorenz-Mie calculation of OPC scattering (μg/m³),mass concentration of particles derived from Lorenz-Mie calculation of OPC scattering (μg/m³)
DateTimeUTC,F1_M11,P_M11,Q1_M11,Q2_M11,T1_M11,T2_M11,T3_M11,T4_M11,T5_M11,U1_M11,ZSPAN_M11,X0_M11,X2_M11,X1_M11
2023-11-13 02:00:00,SystemResetWarning,0837.9,5.01,000.00,027.8,026.5,000.0,036.2,029.1,7.6,0000.0,0009.73,0003.34,0002.56
2023-11-13 02:01:00,SystemResetWarning,0837.9,5.00,000.00,027.8,026.5,000.0,036.2,029.1,7.5,0000.0,0010.17,0003.37,0002.56
2023-11-13 02:02:00,SystemResetWarning,0837.9,5.00,000.00,027.8,026.5,000.0,036.2,029.1,7.6,0000.0,0010.42,0003.38,0002.54
2023-11-13 02:03:00,SystemResetWarning,0837.9,5.00,000.00,027.7,026.5,000.0,036.2,029.1,7.5,0000.0,0010.26,0003.39,0002.51
2023-11-13 02:04:00,SystemResetWarning,0837.9,5.00,000.00,027.7,026.5,000.0,036.2,029.1,7.5,0000.0,0010.14,0003.40,0002.50
2023-11-13 02:05:00,SystemResetWarning,0837.8,5.00,000.00,027.7,026.4,000.0,036.2,029.1,7.5,0000.0,0010.14,0003.39,0002.51
2023-11-13 02:06:00,SystemResetWarning,0837.8,4.99,000.00,027.7,026.4,000.0,036.2,029.0,7.5,0000.0,0010.53,0003.45,0002.51
2023-11-13 02:07:00,SystemResetWarning,0837.8,5.00,000.00,027.7,026.4,000.0,036.2,029.0,7.5,0000.0,0010.59,0003.48,0002.50
2023-11-13 02:08:00,SystemResetWarning,0837.8,5.00,000.00,027.7,026.4,000.0,036.2,029.0,7.5,0000.0,0010.46,0003.49,0002.51
2023-11-13 02:09:00,SystemResetWarning,0837.8,5.00,000.00,027.7,026.4,000.0,036.2,029.0,7.5,0000.0,0010.41,0003.52,0002.52
2023-11-13 02:10:00,SystemResetWarning,0837.8,5.00,000.00,027.7,026.4,000.0,036.2,029.0,7.5,0000.0,0010.69,0003.54,0002.51
2023-11-13 02:11:00,SystemResetWarning,0837.8,5.01,000.00,027.7,026.4,000.0,036.1,029.0,7.5,0000.0,0010.42,0003.54,0002.51
2023-11-13 02:12:00,SystemResetWarning,0837.8,4.99,000.00,027.7,026.4,000.0,036.1,029.0,7.5,0000.0,0010.55,0003.56,0002.51
2023-11-13 02:13:00,SystemResetWarning,0837.8,4.99,000.00,027.7,026.3,000.0,036.1,029.0,7.5,0000.0,0010.28,0003.57,0002.51
2023-11-13 02:14:00,SystemResetWarning,0837.9,5.00,000.00,027.6,026.3,000.0,036.1,029.0,7.5,0000.0,0010.23,0003.56,0002.50
2023-11-13 02:15:00,SystemResetWarning,0837.9,5.00,000.00,027.6,026.4,000.0,036.1,028.9,7.5,0000.0,0010.25,0003.55,0002.50
2023-11-13 02:16:00,SystemResetWarning,0837.8,5.00,000.00,027.6,026.3,000.0,036.1,029.0,7.5,0000.0,0011.01,0003.55,0002.49
2023-11-13 02:17:00,SystemResetWarning,0837.8,5.00,000.00,027.6,026.3,000.0,036.1,029.0,7.4,0000.0,0010.87,0003.55,0002.49
2023-11-13 02:18:00,SystemResetWarning,0837.9,5.00,000.00,027.6,026.3,000.0,036.1,028.9,7.4,0000.0,0010.55,0003.53,0002.49
2023-11-13 02:19:00,SystemResetWarning,0837.9,5.00,000.00,027.6,026.3,000.0,036.1,028.9,7.4,0000.0,0010.55,0003.52,0002.49
2023-11-13 02:20:00,SystemResetWarning,0837.9,5.00,000.00,027.6,026.3,000.0,036.1,028.9,7.5,0000.0,0010.49,0003.50,0002.48
2023-11-13 02:21:00,SystemResetWarning,0837.8,5.00,000.00,027.6,026.3,000.0,036.1,028.9,7.5,0000.0,0009.99,0003.50,0002.50
2023-11-13 02:22:00,SystemResetWarning,0837.8,5.00,000.00,027.6,026.3,000.0,036.0,028.9,7.5,0000.0,0010.55,0003.51,0002.49
2023-11-13 02:23:00,SystemResetWarning,0837.9,5.00,000.00,027.6,026.3,000.0,036.0,028.9,7.5,0000.0,0010.14,0003.49,0002.48
2023-11-13 02:24:00,SystemResetWarning,0837.9,5.00,000.00,027.6,026.3,000.0,036.0,028.9,7.5,0000.0,0009.65,0003.46,0002.49
2023-11-13 02:25:00,SystemResetWarning,0837.9,5.00,000.00,027.6,026.3,000.0,036.0,028.9,7.5,0000.0,0009.63,0003.46,0002.50
2023-11-13 02:26:00,SystemResetWarning,0838.0,5.00,000.00,027.6,026.3,000.0,036.0,028.9,7.5,0000.0,0009.65,0003.49,0002.51
2023-11-13 02:27:00,SystemResetWarning,0838.0,5.00,000.00,027.5,026.3,000.0,036.0,028.9,7.5,0000.0,0008.80,0003.48,0002.51
2023-11-13 02:28:00,SystemResetWarning,0838.0,5.00,000.00,027.5,026.3,000.0,036.0,028.9,7.5,0000.0,0008.69,0003.45,0002.49
2023-11-13 02:29:00,SystemResetWarning,0837.9,5.00,000.00,027.5,026.3,000.0,036.0,028.9,7.5,0000.0,0008.71,0003.44,0002.48
2023-11-13 02:30:00,SystemResetWarning,0837.8,5.00,000.00,027.5,026.3,000.0,036.0,028.9,7.5,0000.0,0008.68,0003.43,0002.48
2023-11-13 02:31:00,SystemResetWarning,0837.8,5.01,000.00,027.5,026.3,000.0,036.0,028.9,7.5,0000.0,0008.99,0003.42,0002.47
2023-11-13 02:32:00,SystemResetWarning,0837.8,5.00,000.00,027.5,026.3,000.0,036.0,028.9,7.5,0000.0,0009.72,0003.42,0002.45
2023-11-13 02:33:00,SystemResetWarning,0837.8,5.00,000.00,027.5,026.3,000.0,036.0,028.9,7.5,0000.0,0009.67,0003.41,0002.42
2023-11-13 02:34:00,SystemResetWarning,0837.8,5.00,000.00,027.5,026.3,000.0,036.0,028.8,7.5,0000.0,0009.38,0003.39,0002.40
2023-11-13 02:35:00,SystemResetWarning,0837.8,5.00,000.00,027.5,026.3,000.0,036.0,028.8,7.5,0000.0,0008.99,0003.36,0002.38
2023-11-13 02:36:00,SystemResetWarning,0837.8,5.00,000.00,027.5,026.3,000.0,036.0,028.8,7.5,0000.0,0008.75,0003.35,0002.35
2023-11-13 02:37:00,SystemResetWarning,0837.8,5.00,000.00,027.5,026.3,000.0,035.9,028.8,7.5,0000.0,0008.73,0003.33,0002.33
2023-11-13 02:38:00,SystemResetWarning,0837.8,5.00,000.00,027.5,026.3,000.0,035.9,028.8,7.5,0000.0,0009.00,0003.38,0002.33
2023-11-13 02:39:00,SystemResetWarning,0837.9,4.99,000.00,027.5,026.3,000.0,035.9,028.8,7.5,0000.0,0009.31,0003.40,0002.32
2023-11-13 02:40:00,SystemResetWarning,0837.8,4.99,000.00,027.5,026.3,000.0,035.9,028.8,7.5,0000.0,0009.28,0003.39,0002.31
2023-11-13 02:41:00,SystemResetWarning,0837.8,5.00,000.00,027.5,026.3,000.0,035.9,028.8,7.5,0000.0,0009.27,0003.40,0002.30
2023-11-13 02:42:00,SystemResetWarning,0837.7,5.00,000.00,027.5,026.3,000.0,035.9,028.8,7.5,0000.0,0008.90,0003.39,0002.28
2023-11-13 02:43:00,SystemResetWarning,0837.8,5.00,000.00,027.5,026.3,000.0,035.9,028.8,7.5,0000.0,0008.17,0003.38,0002.26
2023-11-13 02:44:00,SystemResetWarning,0837.8,5.00,000.00,027.5,026.2,000.0,035.9,028.8,7.5,0000.0,0007.65,0003.39,0002.25
2023-11-13 02:45:00,SystemResetWarning,0837.8,5.00,000.00,027.5,026.2,000.0,035.9,028.8,7.5,0000.0,0007.72,0003.40,0002.26
2023-11-13 02:46:00,SystemResetWarning,0837.8,5.00,000.00,027.5,026.2,000.0,035.9,028.8,7.5,0000.0,0007.88,0003.43,0002.25
2023-11-13 02:47:00,SystemResetWarning,0837.8,5.01,000.00,027.5,026.2,000.0,035.9,028.8,7.5,0000.0,0007.91,0003.43,0002.23
2023-11-13 02:48:00,SystemResetWarning,0837.8,5.00,000.00,027.4,026.2,000.0,035.9,028.8,7.5,0000.0,0008.01,0003.43,0002.22
2023-11-13 02:49:00,SystemResetWarning,0837.8,5.00,000.00,027.4,026.1,000.0,035.9,028.8,7.5,0000.0,0007.96,0003.37,0002.21
2023-11-13 02:50:00,SystemResetWarning,0837.8,5.00,000.00,027.4,026.1,000.0,035.9,028.8,7.5,0000.0,0007.59,0003.34,0002.20
2023-11-13 02:51:00,SystemResetWarning,0837.7,5.00,000.00,027.4,026.1,000.0,035.9,028.8,7.4,0000.0,0007.60,0003.34,0002.18
2023-11-13 02:52:00,SystemResetWarning,0837.7,4.99,000.00,027.4,026.1,000.0,035.9,028.8,7.4,0000.0,0007.66,0003.35,0002.17
2023-11-13 02:53:00,SystemResetWarning,0837.8,4.99,000.00,027.4,026.1,000.0,035.8,028.8,7.4,0000.0,0007.84,0003.35,0002.16
2023-11-13 02:54:00,SystemResetWarning,0837.8,4.99,000.00,027.4,026.1,000.0,035.8,028.7,7.4,0000.0,0008.37,0003.35,0002.16
2023-11-13 02:55:00,SystemResetWarning,0837.8,4.99,000.00,027.4,026.1,000.0,035.8,028.8,7.4,0000.0,0008.17,0003.30,0002.15
2023-11-13 02:56:00,SystemResetWarning,0837.8,5.01,000.00,027.4,026.1,000.0,035.8,028.7,7.5,0000.0,0008.30,0003.26,0002.13
2023-11-13 02:57:00,SystemResetWarning,0837.8,5.01,000.00,027.4,026.1,000.0,035.8,028.7,7.5,0000.0,0008.88,0003.23,0002.11
2023-11-13 02:58:00,SystemResetWarning,0837.8,5.01,000.00,027.4,026.1,000.0,035.8,028.7,7.5,0000.0,0009.20,0003.21,0002.11
2023-11-13 02:59:00,SystemResetWarning,0837.8,5.00,000.00,027.4,026.1,000.0,035.8,028.7,7.5,0000.0,0009.92,0003.20,0002.11
